Location: La Martelli�re
(47.2951°N, 0.1379°E)
Time: 21:59:03
(UTC+00:00)

Daily predictions for brighter satellites

Satellite Brightness Start Highest point End
(mag) Time Altitude Azimuth Time Altitude Azimuth Time Altitude Azimuth
Cosmos 1975 3.7 18:31:20 10° SSE 18:34:43 27° E 18:38:07 10° NNE
Okean-O 3.0 18:30:36 10° SE 18:34:48 43° ENE 18:39:01 10° N
Lacrosse 5 rocket 3.1 18:31:30 10° NW 18:35:21 26° N 18:39:08 10° ENE
Cosmos 1536 4.0 18:33:22 10° SSW 18:37:17 50° WNW 18:41:13 10° N
COSMOS 2455 3.8 18:33:42 10° NNW 18:39:06 32° NE 18:44:28 10° ESE
Cosmos 1842 3.4 18:37:38 10° N 18:41:31 53° ENE 18:45:22 10° SSE
SL-4 R/B 3.3 18:39:27 10° W 18:42:27 29° SW 18:45:33 10° SSE
OBJECT-B 2.3 18:42:37 10° ESE 18:45:00 20° ENE 18:47:23 10° NNE
SeaSat 1 2.8 18:41:23 10° SE 18:46:07 49° NE 18:50:53 10° NNW
Cosmos 1733 Rocket 3.2 18:43:29 10° S 18:47:40 51° E 18:51:52 10° NNE
USA 305 3.4 18:44:04 10° WSW 18:48:13 58° NNW 18:52:25 10° NE
BREEZE-M DEB (TANK) 1.7 18:46:23 10° WNW 18:48:33 60° SSW 18:50:16 12° ESE
USA 186 3.0 18:46:50 11° ESE 18:48:46 19° ENE 18:50:56 10° NNE
Resurs 01 Rocket 3.7 18:50:34 10° ENE 18:51:46 11° ENE 18:52:58 10° NE
Cosmos 1833 Rocket 3.4 18:47:17 10° NW 18:52:47 57° WSW 18:58:16 10° S
H-2A R/B 1.9 18:49:08 10° NNE 18:53:26 78° ESE 18:57:36 10° S
ISS -2.8 18:50:54 10° SSW 18:53:54 30° SE 18:56:29 12° E
Cosmos 2181 Rocket 4.0 18:48:14 10° N 18:54:25 76° E 19:00:38 10° SSE
SJ-6B 3.9 18:52:56 10° SE 18:56:28 28° ENE 19:00:00 10° N
Cosmos 1400 Rocket 4.1 18:53:54 10° SE 18:57:01 21° E 19:00:07 10° NE
COSMOS 2406 3.9 18:54:00 10° NNW 18:59:42 60° WSW 19:05:20 10° S
USA 307 3.5 18:55:48 10° WSW 18:59:57 55° NNW 19:04:08 10° NE
SL-08 RB Rocket 4.2 18:56:29 10° S 19:00:54 63° WSW 19:05:22 10° NNW
BREEZE-M DEB (TANK) 3.9 18:53:24 10° WSW 19:03:54 68° SSE 19:06:54 13° ENE
USA 215 3.6 18:57:31 10° SE 19:04:02 66° SW 19:10:36 10° WNW
Cosmos 968 Rocket 3.4 18:59:45 10° SSW 19:04:57 72° ESE 19:10:14 10° NNE
Cosmos 1461 3.8 19:02:10 10° NNW 19:05:49 31° NE 19:08:15 17° E
CSL-04 Rocket 3.6 19:01:21 10° SSE 19:06:37 68° ENE 19:12:00 10° N
Cosmos 2082 Rocket 2.3 19:02:34 10° NNW 19:08:20 86° WSW 19:14:02 10° SSE
Cosmos 1340 2.6 19:06:19 10° N 19:10:04 60° ENE 19:13:47 10° SSE
USA 281 4.3 19:06:00 10° NE 19:10:43 20° E 19:15:24 10° SE
USA 276 3.1 19:10:47 10° SSW 19:13:30 28° SE 19:14:27 23° ESE
Meteor 1-21 4.2 19:08:53 10° N 19:14:37 81° ENE 19:20:15 10° SSE
MetOp-A 4.1 19:09:28 10° SSE 19:14:49 82° ENE 19:20:13 10° NNW
DMSP B5D2-2 4.1 19:09:50 10° NNE 19:15:09 88° ESE 19:20:27 10° SSW
USA 306 3.8 19:11:55 10° W 19:15:58 45° NNW 19:20:04 10° NE
Cosmos 921 Rocket 3.7 19:12:28 10° NNW 19:16:44 56° WSW 19:20:54 10° S
Cosmos 2184 Rocket 4.0 19:11:54 10° S 19:18:07 61° E 19:24:20 10° NNE
Cosmos 1975 Rocket 4.3 19:14:49 10° NNE 19:18:20 23° ENE 19:19:38 20° E
ATLAS CENTAUR R/B 2.7 19:14:25 10° NNW 19:18:34 32° NE 19:21:09 20° E
USA 308 3.8 19:15:03 10° W 19:19:08 46° NNW 19:23:16 10° NE
Cosmos 1626 3.5 19:19:22 10° NNE 19:22:10 20° ENE 19:22:25 20° ENE
Cosmos 1486 Rocket 3.9 19:19:01 10° SSW 19:24:13 71° ESE 19:29:30 10° NNE
Cosmos 2278 Rocket 3.2 19:25:06 10° SW 19:30:34 49° WNW 19:36:07 10° NNE
CZ-4B R/B 1.7 19:28:29 10° N 19:31:29 58° WNW 19:34:29 10° SSW
CZ-3B R/B 4.4 19:27:36 10° WNW 19:35:11 26° WSW 19:38:23 10° S
Cosmos 2297 3.8 19:30:21 10° S 19:35:50 52° ESE 19:41:23 10° NE
Cosmos 2154 Rocket 4.1 19:30:04 10° S 19:36:15 58° E 19:42:29 10° NNE
Cosmos 1908 Rocket 3.5 19:32:41 10° S 19:37:06 63° E 19:41:33 10° NNE
Cosmos 2369 Rocket 3.2 19:39:09 24° E 19:39:09 24° E 19:42:51 10° NE
Lacrosse 4 Rocket 3.4 19:39:47 10° WSW 19:43:19 28° NW 19:46:53 10° NNE
Cosmos 1378 Rocket 4.0 19:40:06 10° NNW 19:44:27 61° W 19:48:48 10° S
Okean 2 4.0 19:41:02 10° NNW 19:45:01 55° W 19:49:00 10° S
Cosmos 1943 Rocket 2.1 19:43:37 10° S 19:49:03 59° ESE 19:54:35 10° NNE
CZ-4 R/B 4.2 19:47:22 10° SW 19:49:56 17° W 19:52:31 10° NW
Cosmos 1707 3.4 19:46:31 10° NNW 19:50:21 55° W 19:54:10 10° S
Cosmos 1346 Rocket 3.0 19:48:51 10° N 19:52:45 47° ENE 19:53:11 45° E
Nadezhda 3 Rocket 3.9 19:48:59 10° N 19:55:11 83° E 20:00:25 15° S
Helios 1A Rocket 2.8 19:55:59 39° SSE 19:57:28 78° ENE 20:01:35 10° NNW
Cosmos 773 Rocket 4.0 19:54:13 10° NNW 19:59:27 64° ENE 20:01:18 39° SE
IRS-1A Rocket 4.3 19:57:31 27° SSE 20:00:46 72° ENE 20:06:39 10° NNW
Cosmos 783 Rocket 4.4 19:57:08 10° NNW 20:02:30 79° ENE 20:04:40 37° SSE
Landsat 7 4.1 20:03:48 44° E 20:04:34 49° ENE 20:09:10 10° N
CSL-04 DEB 4.2 20:00:46 10° NNE 20:04:46 84° ESE 20:07:17 22° SSW
Inspiration4 0.2 20:02:30 10° WSW 20:05:09 61° W 20:05:09 61° W
Cosmos 1238 Rocket 4.1 19:59:57 10° SSW 20:06:30 76° W 20:12:32 10° N
MOS 1 4.2 20:04:36 28° SSE 20:07:42 83° ENE 20:13:25 10° NNW
ERBS 4.1 20:05:49 10° W 20:08:43 28° NNW 20:10:09 20° NNE
KORONAS-FOTON 3.9 20:06:01 10° NNW 20:09:47 71° W 20:10:41 48° SSW
SJ 16-02 3.7 20:18:16 11° NE 20:18:16 11° NE 20:18:32 10° NE
Lacrosse 5 rocket 1.7 20:10:50 10° NW 20:15:19 55° NNE 20:15:47 52° ENE
Cosmos 1674 3.0 20:12:01 10° NNW 20:15:40 61° W 20:16:21 50° SW
SPOT 3 Rocket 3.7 20:15:12 47° E 20:15:44 49° ENE 20:20:42 10° N
OBJECT-B 3.0 20:15:03 14° SW 20:16:57 24° W 20:19:36 10° NW
Cosmos 2341 Rocket 4.0 20:14:16 31° SSE 20:17:14 60° E 20:23:29 10° NNE
USA 186 4.1 20:18:20 15° WSW 20:19:26 18° W 20:21:30 10° NW
Ariane Rocket 2.9 20:19:03 44° SSE 20:20:43 89° WSW 20:25:51 10° NNW
Cosmos 1538 Rocket 4.3 20:15:54 10° NNW 20:21:07 50° ENE 20:21:35 49° E
SeaSat 1 4.2 20:19:40 10° SSW 20:23:49 28° WSW 20:28:02 10° NW
Meteor 2-20 4.4 20:18:26 10° N 20:24:32 63° ENE 20:25:49 51° SE
COSMOS 2455 3.2 20:19:28 10° NW 20:25:26 62° WSW 20:27:55 35° S
Resurs 01 Rocket 1.5 20:27:29 80° E 20:27:30 80° ENE 20:31:56 10° NNW
Cosmos 1782 Rocket 3.7 20:25:42 31° SSW 20:27:44 71° W 20:32:11 10° N
USA 305 4.3 20:24:52 10° WNW 20:28:43 33° N 20:29:44 29° NNE
EO 1 Delta rocket 3.9 20:28:25 49° S 20:29:38 76° W 20:34:43 10° NNW
ISS -2.3 20:27:15 10° WSW 20:29:30 37° W 20:29:30 37° W
MetOp-B 4.1 20:31:11 60° E 20:31:34 62° ENE 20:36:52 10° N
IGS 5A 3.5 20:32:43 76° W 20:32:43 76° W 20:36:49 10° NNW
Cosmos 1400 Rocket 4.4 20:29:26 10° SW 20:33:14 36° WNW 20:37:02 10° N
Meteor 1-24 Rocket 4.0 20:29:17 10° N 20:34:01 47° ENE 20:34:01 47° ENE
Cosmos 2366 rocket 4.0 20:36:46 55° E 20:36:46 55° E 20:42:45 10° NNE
Cosmos 2218 Rocket 3.9 20:37:42 57° E 20:37:49 57° E 20:43:51 10° NNE
ARIANE 5 R/B 4.3 20:41:24 22° NNE 20:41:24 22° NNE 20:43:30 10° N
SPOT 5 4.1 20:40:50 32° NE 20:40:50 32° NE 20:44:49 10° N
USA 307 4.2 20:36:39 10° WNW 20:40:30 32° N 20:41:02 31° NNE
Cosmos 1461 4.2 20:41:15 10° NW 20:44:36 32° WSW 20:44:36 32° WSW
Meteor 1-15 Rocket 4.0 20:44:52 67° S 20:45:41 87° E 20:51:18 10° NNE
SL-14 R/B 4.3 20:44:46 10° NNW 20:47:38 44° NNW 20:47:38 44° NNW
Meteor 2-20 Rocket 4.3 20:43:34 10° N 20:49:43 71° E 20:50:00 70° E
SPOT 1/Viking Rocket 3.5 20:54:07 82° N 20:54:07 82° N 20:59:04 10° NNW
USA 281 3.1 20:49:19 10° NNE 20:55:56 85° WNW 21:02:29 10° SSW
BREEZE-M DEB (TANK) 4.3 20:44:02 10° WSW 20:55:42 70° S 20:55:42 70° S
Cosmos 1975 Rocket 4.2 20:52:14 10° NNW 20:56:20 39° W 20:56:48 37° WSW
USA 306 4.3 20:52:42 10° WNW 20:56:19 32° N 20:56:19 32° N
Cosmos 1626 4.0 20:54:08 10° NNW 20:56:55 29° WNW 20:56:55 29° WNW
ATLAS CENTAUR R/B 2.5 20:53:08 10° NW 20:57:17 46° WSW 20:57:17 46° WSW
Cosmos 2297 Rocket 4.2 20:54:32 10° N 20:57:50 15° NE 20:58:13 15° NE
USA 308 4.4 20:55:54 10° WNW 20:59:25 32° N 20:59:25 32° N
Cosmos 1777 Rocket 4.2 21:00:48 60° WSW 21:01:32 68° WNW 21:06:47 10° NNE
Cosmos 1833 4.2 20:56:06 10° NNW 21:01:23 74° NNE 21:01:23 74° NNE
Meteor 2-5 Rocket 3.6 20:57:15 10° NNW 21:02:38 82° WNW 21:02:38 82° WNW
Cosmos 1025 Rocket 4.2 21:03:35 10° NNW 21:06:59 42° WNW 21:06:59 42° WNW
Cosmos 1959 Rocket 4.4 21:09:21 79° SSW 21:09:47 87° W 21:16:09 10° N
Cosmos 864 Rocket 4.4 21:11:24 84° SW 21:11:35 86° W 21:17:51 10° N
Spot 2 Rocket 4.2 21:17:22 49° N 21:17:22 49° N 21:21:01 10° NNW
Cosmos 2227 Rocket 4.2 21:15:39 10° N 21:19:06 16° NE 21:19:06 16° NE
Terra 3.5 21:23:00 27° N 21:23:00 27° N 21:25:21 10° N
Cosmos 2369 Rocket 2.6 21:20:42 47° WSW 21:21:59 58° WNW 21:27:35 10° NNE
Cosmos 1943 Rocket 4.1 21:28:29 10° WSW 21:33:12 27° NW 21:37:59 10° N
NOSS 3-3 (A) 4.5 21:33:49 10° NW 21:41:16 75° NE 21:41:17 75° NE
NOSS 3-3 (C) 4.5 21:33:55 10° NW 21:41:22 75° NE 21:41:23 75° NE
Cosmos 1727 Rocket 4.5 21:44:08 10° NNW 21:49:43 57° WNW 21:49:43 57° WNW
SJ 16-02 3.8 21:55:12 19° NNW 21:55:12 19° NNW 21:56:58 10° N
Lacrosse 5 rocket 4.2 21:50:21 10° WNW 21:51:23 16° WNW 21:51:23 16° WNW
Resurs 01 Rocket 4.5 22:05:03 12° W 22:05:03 12° W 22:06:11 10° WNW
Cosmos 2297 Rocket 4.0 22:37:26 10° NNW 22:40:00 27° NNW 22:40:00 27° NNW
CENTAUR R/B 4.0 23:06:57 32° NNE 23:06:57 32° NNE 23:10:57 10° NE
Cosmos 2227 Rocket 4.2 22:58:38 10° NNW 23:00:54 25° NNW 23:00:54 25° NNW
Cosmos 2263 Rocket 4.4 23:26:39 10° N 23:28:55 20° N 23:28:55 20° N
